Regional Weather Roundup
Issued by NWS

Home | Current Version | Previous Version | Text Only | Print | Product List | Glossary On
Versions: 1 2 3 4 5 6 7 8 9 10 11 12 13 14 15 16 17 18 19 20 21 22 23 24 25 26 27 28 29 30 31 32 33 34 35 36 37 38 39 40 41 42 43 44 45 46 47 48 49 50
000
ASUS43 KLSX 060257
RWRMO

WEATHER SUMMARY FOR MISSOURI
NATIONAL WEATHER SERVICE SPRINGFIELD MO
1000 PM CDT THU MAY 05 2016

NOTE: "FAIR" INDICATES FEW OR NO CLOUDS BELOW 12,000 FEET WITH NO
       SIGNIFICANT WEATHER AND/OR OBSTRUCTIONS TO VISIBILITY.
       CURRENT SKY AND/OR WEATHER CONDITIONS ARE NOT AVAILABLE FOR
       CHILLICOTHE AND FARMINGTON.

MOZ001>031-035>038-043-044-053-054-060400-
...NORTHERN AND WESTERN MISSOURI...

CITY           SKY/WX    TMP DP  RH WIND       PRES   REMARKS
KANSAS CTY INT CLEAR     63  38  39 E3        30.04R
LEE`S SUMMIT   CLEAR     64  36  35 NE3       30.05R
ST JOSEPH      CLEAR     61  47  59 SW3       30.04R
CHILLICOTHE      N/A     52  44  74 CALM      30.05R

$$
MOZ066>068-077>081-088>096-101>105-060400-
...SOUTHWEST MISSOURI...

CITY           SKY/WX    TMP DP  RH WIND       PRES   REMARKS
SPRINGFIELD    CLEAR     52  39  61 CALM      30.04R
JOPLIN         CLEAR     59  43  55 CALM      30.05R

$$
MOZ032>034-039>042-045>050-055>058-069>072-060400-
...CENTRAL MISSOURI...

CITY           SKY/WX    TMP DP  RH WIND       PRES   REMARKS
COLUMBIA       NOT AVBL
JEFFERSON CITY CLEAR     54  41  61 CALM      30.04R
ROLLA          CLEAR     50  40  68 CALM      30.03R
SEDALIA        CLEAR     61  32  33 CALM      30.06R
WARRENSBURG    CLEAR     57  41  54 CALM      30.04R

$$
MOZ051-052-059>065-060400-
...EAST CENTRAL MISSOURI...

CITY           SKY/WX    TMP DP  RH WIND       PRES   REMARKS
ST LOUIS INTL  CLEAR     57  43  59 NW3       30.03R

$$
MOZ072>076-082>087-097>100-106>115-060400-
...SOUTH CENTRAL AND SOUTHEAST MISSOURI...

CITY           SKY/WX    TMP DP  RH WIND       PRES   REMARKS
CAPE GIRARDEAU CLEAR     48  45  89 SW5       30.02R
POPLAR BLUFF   CLEAR     54  47  77 CALM      30.03R
WEST PLAINS    CLEAR     52  36  54 CALM      30.05R

$$



USA.gov is the U.S. government's official web portal to all federal, state and local government web resources and services.